Location: Unspecified
(0.0000°N, 0.0000°E)
Time: 05:33:07
(UTC+00:00)

ICEYE-X6 - Visible Passes

Search period start: 17 February 2026 00:00
Search period end: 27 February 2026 00:00
Orbit: 550 x 561 km, 98.1° (Epoch: 16 February)

Date Brightness Start Highest point End Pass type
(mag) Time Alt. Az. Time Alt. Az. Time Alt. Az.
17 Feb ? 05:13:07 15° WSW 05:13:07 15° WSW 05:14:08 10° SW visible
18 Feb ? 05:10:28 17° SW 05:10:28 17° SW 05:11:39 10° SW visible
19 Feb ? 05:07:47 18° SW 05:07:47 18° SW 05:09:09 10° SW visible
20 Feb ? 05:05:07 20° SW 05:05:07 20° SW 05:06:38 10° SW visible
21 Feb ? 05:02:25 22° SW 05:02:25 22° SW 05:04:05 10° SSW visible
22 Feb ? 04:59:42 24° SW 04:59:42 24° SW 05:01:31 10° SSW visible
23 Feb ? 04:56:56 26° SW 04:56:56 26° SW 04:58:56 10° SSW visible
24 Feb ? 04:54:09 29° SW 04:54:09 29° SW 04:56:20 10° SSW visible
25 Feb ? 04:45:55 10° N 04:51:20 33° SW 04:53:43 10° SSW visible
26 Feb ? 04:43:13 10° N 04:48:27 38° SW 04:51:05 10° SSW visible
